THY53R LYBE-LSZH

Flight info

Callsign THY53R
Flight time N/A
Altitude 38000
Route TUVAR1S TUVAR DCT ADULA DCT NASSY DCT BEDOX DCT NAKUM DCT ERKIR DCT KPT L856 NEGRA MATIV AMIKI CI14 OSNEM
Aircraft B77W/H-SDE1E2E3FGHIJ2J3J4J5M1RWXY/LB1D1

Departure

Time 2026-04-30 18:47
Airport Belgrade Nikola Tesla Airport (LYBE)

Arrival

Time N/A
Airport Zürich Airport (LSZH)
Time Latitude Longitude Altitude Speed Heading
2026-04-30 18:29 44.82102 20.29267 312 ft 0 kts 229°
2026-04-30 18:36 44.82110 20.29279 312 ft 2 kts 215°
2026-04-30 18:37 44.82124 20.29291 312 ft 2 kts 197°
2026-04-30 18:37 44.82141 20.29295 310 ft 2 kts 170°
2026-04-30 18:37 44.82157 20.29288 310 ft 2 kts 148°
2026-04-30 18:37 44.82170 20.29273 312 ft 2 kts 133°
2026-04-30 18:38 44.82175 20.29264 313 ft 1 kts 126°
2026-04-30 18:40 44.82175 20.29265 313 ft 1 kts 125°
2026-04-30 18:40 44.82163 20.29293 314 ft 7 kts 121°
2026-04-30 18:40 44.82124 20.29378 314 ft 12 kts 123°
2026-04-30 18:41 44.82086 20.29467 314 ft 9 kts 109°
2026-04-30 18:41 44.82112 20.29548 315 ft 10 kts 69°
2026-04-30 18:41 44.82095 20.29638 313 ft 10 kts 118°
2026-04-30 18:41 44.82055 20.29726 315 ft 12 kts 122°
2026-04-30 18:42 44.81992 20.29870 313 ft 24 kts 121°
2026-04-30 18:42 44.81807 20.30288 312 ft 25 kts 122°
2026-04-30 18:42 44.81714 20.30497 315 ft 25 kts 122°
2026-04-30 18:45 44.80994 20.32127 312 ft 0 kts 108°
2026-04-30 18:46 44.80991 20.32150 311 ft 5 kts 97°
2026-04-30 18:46 44.81004 20.32227 312 ft 10 kts 62°
2026-04-30 18:46 44.81046 20.32237 310 ft 8 kts 317°
2026-04-30 18:46 44.81081 20.32170 311 ft 12 kts 301°
2026-04-30 18:47 44.81204 20.31900 315 ft 61 kts 303°
2026-04-30 18:47 44.81625 20.30954 312 ft 164 kts 302°
2026-04-30 18:47 44.82300 20.29376 942 ft 193 kts 301°
2026-04-30 18:47 44.82928 20.27664 2105 ft 203 kts 298°
2026-04-30 18:48 44.83489 20.25671 2587 ft 236 kts 294°
2026-04-30 18:48 44.84082 20.23385 3292 ft 254 kts 293°
2026-04-30 18:48 44.84685 20.20999 4339 ft 260 kts 293°
2026-04-30 18:48 44.85292 20.18580 5436 ft 264 kts 292°
2026-04-30 18:49 44.85911 20.16116 6480 ft 269 kts 292°
2026-04-30 18:49 44.86540 20.13612 7485 ft 273 kts 292°
2026-04-30 18:49 44.87178 20.11073 8490 ft 277 kts 292°
2026-04-30 18:49 44.87825 20.08502 9521 ft 280 kts 292°
2026-04-30 18:50 44.88473 20.05927 10486 ft 284 kts 292°
2026-04-30 18:50 44.89153 20.03231 11089 ft 304 kts 292°
2026-04-30 18:50 44.89900 20.00282 11339 ft 335 kts 292°
2026-04-30 18:50 44.90705 19.97091 11969 ft 352 kts 292°
2026-04-30 18:51 44.91530 19.93797 12987 ft 359 kts 292°
2026-04-30 18:51 44.92367 19.90450 14131 ft 364 kts 292°
2026-04-30 18:51 44.93212 19.87063 15153 ft 368 kts 292°
2026-04-30 18:51 44.94071 19.83622 16155 ft 374 kts 292°
2026-04-30 18:52 44.94942 19.80134 17132 ft 380 kts 292°
2026-04-30 18:52 44.95825 19.76588 18119 ft 386 kts 292°
2026-04-30 18:52 44.96724 19.72978 19038 ft 392 kts 292°
2026-04-30 18:52 44.97631 19.69328 19935 ft 396 kts 292°
2026-04-30 18:53 44.98545 19.65640 20853 ft 399 kts 292°
2026-04-30 18:53 44.99466 19.61922 21756 ft 404 kts 291°
2026-04-30 18:53 45.00398 19.58153 22603 ft 408 kts 291°
2026-04-30 18:53 45.01339 19.54343 23446 ft 413 kts 291°
2026-04-30 18:54 45.02288 19.50492 24228 ft 417 kts 291°
2026-04-30 18:54 45.03237 19.46635 24927 ft 421 kts 291°
2026-04-30 18:54 45.04200 19.42712 25638 ft 424 kts 291°
2026-04-30 18:54 45.05170 19.38755 26345 ft 428 kts 291°
2026-04-30 18:55 45.06148 19.34758 27009 ft 431 kts 291°
2026-04-30 18:55 45.08123 19.26667 28292 ft 439 kts 291°
2026-04-30 18:55 45.09121 19.22569 28907 ft 442 kts 290°
2026-04-30 18:56 45.11139 19.14259 30095 ft 449 kts 290°
2026-04-30 18:56 45.12144 19.10109 30585 ft 452 kts 290°
2026-04-30 18:56 45.13266 19.05933 30983 ft 455 kts 295°
2026-04-30 18:57 45.15973 18.97796 31776 ft 460 kts 297°
2026-04-30 18:57 45.17356 18.93706 32284 ft 460 kts 297°
2026-04-30 18:57 45.18731 18.89608 32804 ft 460 kts 297°
2026-04-30 18:58 45.21453 18.81399 33792 ft 460 kts 296°
2026-04-30 18:58 45.22810 18.77275 34253 ft 460 kts 296°
2026-04-30 18:58 45.24164 18.73154 34655 ft 460 kts 296°
2026-04-30 18:59 45.26848 18.64975 35424 ft 460 kts 296°
2026-04-30 19:00 45.30880 18.52657 36539 ft 460 kts 296°
2026-04-30 19:00 45.32223 18.48543 36895 ft 460 kts 296°
2026-04-30 19:00 45.34911 18.40290 37597 ft 460 kts 296°
2026-04-30 19:01 45.37592 18.32030 38267 ft 460 kts 296°
2026-04-30 19:02 45.41640 18.19509 38326 ft 463 kts 296°
2026-04-30 19:03 45.47189 18.03163 38339 ft 456 kts 300°
2026-04-30 19:04 45.53188 17.87283 38345 ft 457 kts 300°
2026-04-30 19:05 45.59173 17.71199 38346 ft 460 kts 299°
2026-04-30 19:06 45.65146 17.55010 38353 ft 462 kts 299°
2026-04-30 19:06 45.69581 17.42929 38353 ft 462 kts 299°
2026-04-30 19:07 45.74056 17.30687 38353 ft 463 kts 299°
2026-04-30 19:08 45.79979 17.14398 38356 ft 462 kts 299°
2026-04-30 19:09 45.84419 17.02121 38359 ft 462 kts 299°
2026-04-30 19:09 45.87372 16.93926 38353 ft 462 kts 299°
2026-04-30 19:10 45.93256 16.77523 38364 ft 462 kts 299°
2026-04-30 19:11 45.97656 16.65189 38371 ft 462 kts 299°
2026-04-30 19:12 46.00582 16.56957 38367 ft 462 kts 299°
2026-04-30 19:12 46.03485 16.48762 38371 ft 462 kts 299°